Time,TemperatureF,DewpointF,PressureIn,WindDirection,WindDirectionDegrees,WindSpeedMPH,WindSpeedGustMPH,Humidity,HourlyPrecipIn,Conditions,Clouds,dailyrainin,SoftwareType,DateUTC
2013-02-17 00:02:00,20.0,-99.9,-100.00,North,-999,-999.0,-999.0,-999,0.00,,,0.00,,2013-02-17 05:02:00,
2013-02-17 00:12:00,20.0,-99.9,-100.00,North,-999,-999.0,-999.0,-999,0.00,,,0.00,,2013-02-17 05:12:00,
2013-02-17 00:22:00,20.0,-99.9,-100.00,North,-999,-999.0,-999.0,-999,0.00,,,0.00,,2013-02-17 05:22:00,
2013-02-17 00:30:00,19.0,-99.9,-100.00,North,-999,-999.0,-999.0,-999,0.00,,,0.00,,2013-02-17 05:30:00,
2013-02-17 00:52:00,19.0,-99.9,-100.00,North,-999,-999.0,-999.0,-999,0.00,,,0.00,,2013-02-17 05:52:00,
2013-02-17 01:02:00,19.0,-99.9,-100.00,North,-999,-999.0,-999.0,-999,0.00,,,0.00,,2013-02-17 06:02:00,
2013-02-17 01:11:00,19.0,-99.9,-100.00,North,-999,-999.0,-999.0,-999,0.00,,,0.00,,2013-02-17 06:11:00,
2013-02-17 01:22:00,19.0,-99.9,-100.00,North,-999,-999.0,-999.0,-999,0.00,,,0.00,,2013-02-17 06:22:00,
2013-02-17 01:30:00,18.0,-99.9,-100.00,North,-999,-999.0,-999.0,-999,0.00,,,0.00,,2013-02-17 06:30:00,
2013-02-17 01:52:00,18.0,-99.9,-100.00,North,-999,-999.0,-999.0,-999,0.00,,,0.00,,2013-02-17 06:52:00,
2013-02-17 02:02:00,18.0,-99.9,-100.00,North,-999,-999.0,-999.0,-999,0.00,,,0.00,,2013-02-17 07:02:00,
2013-02-17 02:11:00,18.0,-99.9,-100.00,North,-999,-999.0,-999.0,-999,0.00,,,0.00,,2013-02-17 07:11:00,
2013-02-17 02:22:00,18.0,-99.9,-100.00,North,-999,-999.0,-999.0,-999,0.00,,,0.00,,2013-02-17 07:22:00,
2013-02-17 02:30:00,17.0,-99.9,-100.00,North,-999,-999.0,-999.0,-999,0.00,,,0.00,,2013-02-17 07:30:00,
2013-02-17 02:52:00,17.0,-99.9,-100.00,North,-999,-999.0,-999.0,-999,0.00,,,0.00,,2013-02-17 07:52:00,
2013-02-17 03:02:00,17.0,-99.9,-100.00,North,-999,-999.0,-999.0,-999,0.00,,,0.00,,2013-02-17 08:02:00,
2013-02-17 03:11:00,17.0,-99.9,-100.00,North,-999,-999.0,-999.0,-999,0.00,,,0.00,,2013-02-17 08:11:00,
2013-02-17 03:22:00,17.0,-99.9,-100.00,North,-999,-999.0,-999.0,-999,0.00,,,0.00,,2013-02-17 08:22:00,
2013-02-17 03:30:00,16.0,-99.9,-100.00,North,-999,-999.0,-999.0,-999,0.00,,,0.00,,2013-02-17 08:30:00,
2013-02-17 03:52:00,16.0,-99.9,-100.00,North,-999,-999.0,-999.0,-999,0.00,,,0.00,,2013-02-17 08:52:00,
2013-02-17 04:02:00,16.0,-99.9,-100.00,North,-999,-999.0,-999.0,-999,0.00,,,0.00,,2013-02-17 09:02:00,
2013-02-17 04:11:00,16.0,-99.9,-100.00,North,-999,-999.0,-999.0,-999,0.00,,,0.00,,2013-02-17 09:11:00,
2013-02-17 04:22:00,16.0,-99.9,-100.00,North,-999,-999.0,-999.0,-999,0.00,,,0.00,,2013-02-17 09:22:00,
2013-02-17 04:30:00,15.0,-99.9,-100.00,North,-999,-999.0,-999.0,-999,0.00,,,0.00,,2013-02-17 09:30:00,
2013-02-17 04:52:00,15.0,-99.9,-100.00,North,-999,-999.0,-999.0,-999,0.00,,,0.00,,2013-02-17 09:52:00,
2013-02-17 05:02:00,15.0,-99.9,-100.00,North,-999,-999.0,-999.0,-999,0.00,,,0.00,,2013-02-17 10:02:00,
2013-02-17 05:11:00,15.0,-99.9,-100.00,North,-999,-999.0,-999.0,-999,0.00,,,0.00,,2013-02-17 10:11:00,
2013-02-17 05:22:00,15.0,-99.9,-100.00,North,-999,-999.0,-999.0,-999,0.00,,,0.00,,2013-02-17 10:22:00,
2013-02-17 05:30:00,14.0,-99.9,-100.00,North,-999,-999.0,-999.0,-999,0.00,,,0.00,,2013-02-17 10:30:00,
2013-02-17 05:52:00,14.0,-99.9,-100.00,North,-999,-999.0,-999.0,-999,0.00,,,0.00,,2013-02-17 10:52:00,
2013-02-17 06:02:00,14.0,-99.9,-100.00,North,-999,-999.0,-999.0,-999,0.00,,,0.00,,2013-02-17 11:02:00,
2013-02-17 06:11:00,14.0,-99.9,-100.00,North,-999,-999.0,-999.0,-999,0.00,,,0.00,,2013-02-17 11:11:00,
2013-02-17 06:22:00,14.0,-99.9,-100.00,North,-999,-999.0,-999.0,-999,0.00,,,0.00,,2013-02-17 11:22:00,
2013-02-17 06:30:00,13.0,-99.9,-100.00,North,-999,-999.0,-999.0,-999,0.00,,,0.00,,2013-02-17 11:30:00,
2013-02-17 06:53:00,13.0,-99.9,-100.00,North,-999,-999.0,-999.0,-999,0.00,,,0.00,,2013-02-17 11:53:00,
2013-02-17 07:12:00,13.0,-99.9,-100.00,North,-999,-999.0,-999.0,-999,0.00,,,0.00,,2013-02-17 12:12:00,
2013-02-17 07:22:00,13.0,-99.9,-100.00,North,-999,-999.0,-999.0,-999,0.00,,,0.00,,2013-02-17 12:22:00,
2013-02-17 07:30:00,12.0,-99.9,-100.00,North,-999,-999.0,-999.0,-999,0.00,,,0.00,,2013-02-17 12:30:00,
2013-02-17 07:52:00,12.0,-99.9,-100.00,North,-999,-999.0,-999.0,-999,0.00,,,0.00,,2013-02-17 12:52:00,
2013-02-17 08:02:00,12.0,-99.9,-100.00,North,-999,-999.0,-999.0,-999,0.00,,,0.00,,2013-02-17 13:02:00,
2013-02-17 08:12:00,12.0,-99.9,-100.00,North,-999,-999.0,-999.0,-999,0.00,,,0.00,,2013-02-17 13:12:00,
2013-02-17 08:22:00,12.0,-99.9,-100.00,North,-999,-999.0,-999.0,-999,0.00,,,0.00,,2013-02-17 13:22:00,
2013-02-17 08:30:00,11.0,-99.9,-100.00,North,-999,-999.0,-999.0,-999,0.01,,,0.01,,2013-02-17 13:30:00,
2013-02-17 08:52:00,11.0,-99.9,-100.00,North,-999,-999.0,-999.0,-999,0.01,,,0.01,,2013-02-17 13:52:00,
2013-02-17 09:02:00,11.0,-99.9,-100.00,North,-999,-999.0,-999.0,-999,0.01,,,0.01,,2013-02-17 14:02:00,
2013-02-17 09:12:00,11.0,-99.9,-100.00,North,-999,-999.0,-999.0,-999,0.01,,,0.01,,2013-02-17 14:12:00,
2013-02-17 09:22:00,11.0,-99.9,-100.00,North,-999,-999.0,-999.0,-999,0.01,,,0.01,,2013-02-17 14:22:00,
2013-02-17 09:30:00,12.0,-99.9,-100.00,North,-999,-999.0,-999.0,-999,0.00,,,0.01,,2013-02-17 14:30:00,
2013-02-17 09:54:00,12.0,-99.9,-100.00,North,-999,-999.0,-999.0,-999,0.00,,,0.01,,2013-02-17 14:54:00,
2013-02-17 10:02:00,12.0,-99.9,-100.00,North,-999,-999.0,-999.0,-999,0.00,,,0.01,,2013-02-17 15:02:00,
2013-02-17 10:11:00,12.0,-99.9,-100.00,North,-999,-999.0,-999.0,-999,0.00,,,0.01,,2013-02-17 15:11:00,
2013-02-17 10:22:00,12.0,-99.9,-100.00,North,-999,-999.0,-999.0,-999,0.00,,,0.01,,2013-02-17 15:22:00,
2013-02-17 10:30:00,12.0,-99.9,-100.00,North,-999,-999.0,-999.0,-999,0.01,,,0.02,,2013-02-17 15:30:00,
2013-02-17 10:52:00,12.0,-99.9,-100.00,North,-999,-999.0,-999.0,-999,0.01,,,0.02,,2013-02-17 15:52:00,
2013-02-17 11:02:00,12.0,-99.9,-100.00,North,-999,-999.0,-999.0,-999,0.01,,,0.02,,2013-02-17 16:02:00,
2013-02-17 11:12:00,12.0,-99.9,-100.00,North,-999,-999.0,-999.0,-999,0.01,,,0.02,,2013-02-17 16:12:00,
2013-02-17 11:22:00,12.0,-99.9,-100.00,North,-999,-999.0,-999.0,-999,0.01,,,0.02,,2013-02-17 16:22:00,
2013-02-17 11:30:00,12.0,-99.9,-100.00,North,-999,-999.0,-999.0,-999,0.04,,,0.06,,2013-02-17 16:30:00,
2013-02-17 11:52:00,12.0,-99.9,-100.00,North,-999,-999.0,-999.0,-999,0.04,,,0.06,,2013-02-17 16:52:00,
2013-02-17 12:02:00,12.0,-99.9,-100.00,North,-999,-999.0,-999.0,-999,0.04,,,0.06,,2013-02-17 17:02:00,
2013-02-17 12:11:00,12.0,-99.9,-100.00,North,-999,-999.0,-999.0,-999,0.04,,,0.06,,2013-02-17 17:11:00,
2013-02-17 12:22:00,12.0,-99.9,-100.00,North,-999,-999.0,-999.0,-999,0.04,,,0.06,,2013-02-17 17:22:00,
2013-02-17 12:30:00,13.0,-99.9,-100.00,North,-999,-999.0,-999.0,-999,0.04,,,0.10,,2013-02-17 17:30:00,
2013-02-17 12:53:00,13.0,-99.9,-100.00,North,-999,-999.0,-999.0,-999,0.04,,,0.10,,2013-02-17 17:53:00,
2013-02-17 13:11:00,13.0,-99.9,-100.00,North,-999,-999.0,-999.0,-999,0.04,,,0.10,,2013-02-17 18:11:00,
2013-02-17 13:22:00,13.0,-99.9,-100.00,North,-999,-999.0,-999.0,-999,0.04,,,0.10,,2013-02-17 18:22:00,
2013-02-17 13:30:00,14.0,-99.9,-100.00,North,-999,-999.0,-999.0,-999,0.23,,,0.33,,2013-02-17 18:30:00,
2013-02-17 14:02:00,14.0,-99.9,-100.00,North,-999,-999.0,-999.0,-999,0.23,,,0.33,,2013-02-17 19:02:00,
2013-02-17 14:11:00,14.0,-99.9,-100.00,North,-999,-999.0,-999.0,-999,0.23,,,0.33,,2013-02-17 19:11:00,
2013-02-17 14:22:00,14.0,-99.9,-100.00,North,-999,-999.0,-999.0,-999,0.23,,,0.33,,2013-02-17 19:22:00,
2013-02-17 14:30:00,14.0,-99.9,-100.00,North,-999,-999.0,-999.0,-999,0.04,,,0.37,,2013-02-17 19:30:00,
2013-02-17 14:52:00,14.0,-99.9,-100.00,North,-999,-999.0,-999.0,-999,0.04,,,0.37,,2013-02-17 19:52:00,
2013-02-17 15:02:00,14.0,-99.9,-100.00,North,-999,-999.0,-999.0,-999,0.04,,,0.37,,2013-02-17 20:02:00,
2013-02-17 15:12:00,14.0,-99.9,-100.00,North,-999,-999.0,-999.0,-999,0.04,,,0.37,,2013-02-17 20:12:00,
2013-02-17 15:22:00,14.0,-99.9,-100.00,North,-999,-999.0,-999.0,-999,0.04,,,0.37,,2013-02-17 20:22:00,
2013-02-17 15:30:00,16.0,-99.9,-100.00,North,-999,-999.0,-999.0,-999,0.01,,,0.38,,2013-02-17 20:30:00,
2013-02-17 15:52:00,16.0,-99.9,-100.00,North,-999,-999.0,-999.0,-999,0.01,,,0.38,,2013-02-17 20:52:00,
2013-02-17 16:02:00,16.0,-99.9,-100.00,North,-999,-999.0,-999.0,-999,0.01,,,0.38,,2013-02-17 21:02:00,
2013-02-17 16:11:00,16.0,-99.9,-100.00,North,-999,-999.0,-999.0,-999,0.01,,,0.38,,2013-02-17 21:11:00,
2013-02-17 16:22:00,16.0,-99.9,-100.00,North,-999,-999.0,-999.0,-999,0.01,,,0.38,,2013-02-17 21:22:00,
2013-02-17 16:30:00,15.0,-99.9,-100.00,North,-999,-999.0,-999.0,-999,0.04,,,0.42,,2013-02-17 21:30:00,
2013-02-17 16:53:00,15.0,-99.9,-100.00,North,-999,-999.0,-999.0,-999,0.04,,,0.42,,2013-02-17 21:53:00,
2013-02-17 17:02:00,15.0,-99.9,-100.00,North,-999,-999.0,-999.0,-999,0.04,,,0.42,,2013-02-17 22:02:00,
2013-02-17 17:12:00,15.0,-99.9,-100.00,North,-999,-999.0,-999.0,-999,0.04,,,0.42,,2013-02-17 22:12:00,
2013-02-17 17:22:00,15.0,-99.9,-100.00,North,-999,-999.0,-999.0,-999,0.04,,,0.42,,2013-02-17 22:22:00,
2013-02-17 17:30:00,15.0,-99.9,-100.00,North,-999,-999.0,-999.0,-999,0.01,,,0.43,,2013-02-17 22:30:00,
2013-02-17 17:53:00,15.0,-99.9,-100.00,North,-999,-999.0,-999.0,-999,0.01,,,0.43,,2013-02-17 22:53:00,
2013-02-17 18:02:00,15.0,-99.9,-100.00,North,-999,-999.0,-999.0,-999,0.01,,,0.43,,2013-02-17 23:02:00,
2013-02-17 18:11:00,15.0,-99.9,-100.00,North,-999,-999.0,-999.0,-999,0.01,,,0.43,,2013-02-17 23:11:00,
2013-02-17 18:22:00,15.0,-99.9,-100.00,North,-999,-999.0,-999.0,-999,0.01,,,0.43,,2013-02-17 23:22:00,
2013-02-17 18:30:00,14.0,-99.9,-100.00,North,-999,-999.0,-999.0,-999,0.25,,,0.68,,2013-02-17 23:30:00,
2013-02-17 18:52:00,14.0,-99.9,-100.00,North,-999,-999.0,-999.0,-999,0.25,,,0.68,,2013-02-17 23:52:00,
2013-02-17 19:02:00,14.0,-99.9,-100.00,North,-999,-999.0,-999.0,-999,0.25,,,0.68,,2013-02-18 00:02:00,
2013-02-17 19:12:00,14.0,-99.9,-100.00,North,-999,-999.0,-999.0,-999,0.25,,,0.68,,2013-02-18 00:12:00,
2013-02-17 19:22:00,14.0,-99.9,-100.00,North,-999,-999.0,-999.0,-999,0.25,,,0.68,,2013-02-18 00:22:00,
2013-02-17 19:30:00,11.0,-99.9,-100.00,North,-999,-999.0,-999.0,-999,0.09,,,0.77,,2013-02-18 00:30:00,
2013-02-17 19:52:00,11.0,-99.9,-100.00,North,-999,-999.0,-999.0,-999,0.09,,,0.77,,2013-02-18 00:52:00,
2013-02-17 20:02:00,11.0,-99.9,-100.00,North,-999,-999.0,-999.0,-999,0.09,,,0.77,,2013-02-18 01:02:00,
2013-02-17 20:12:00,11.0,-99.9,-100.00,North,-999,-999.0,-999.0,-999,0.09,,,0.77,,2013-02-18 01:12:00,
2013-02-17 20:22:00,11.0,-99.9,-100.00,North,-999,-999.0,-999.0,-999,0.09,,,0.77,,2013-02-18 01:22:00,
2013-02-17 20:30:00,10.0,-99.9,-100.00,North,-999,-999.0,-999.0,-999,0.87,,,1.64,,2013-02-18 01:30:00,
2013-02-17 20:52:00,10.0,-99.9,-100.00,North,-999,-999.0,-999.0,-999,0.87,,,1.64,,2013-02-18 01:52:00,
2013-02-17 21:02:00,10.0,-99.9,-100.00,North,-999,-999.0,-999.0,-999,0.87,,,1.64,,2013-02-18 02:02:00,
2013-02-17 21:11:00,10.0,-99.9,-100.00,North,-999,-999.0,-999.0,-999,0.87,,,1.64,,2013-02-18 02:11:00,
2013-02-17 21:22:00,10.0,-99.9,-100.00,North,-999,-999.0,-999.0,-999,0.87,,,1.64,,2013-02-18 02:22:00,
2013-02-17 21:30:00,9.0,-99.9,-100.00,North,-999,-999.0,-999.0,-999,1.44,,,3.08,,2013-02-18 02:30:00,
2013-02-17 21:52:00,9.0,-99.9,-100.00,North,-999,-999.0,-999.0,-999,1.44,,,3.08,,2013-02-18 02:52:00,
2013-02-17 22:02:00,9.0,-99.9,-100.00,North,-999,-999.0,-999.0,-999,1.44,,,3.08,,2013-02-18 03:02:00,
2013-02-17 22:12:00,9.0,-99.9,-100.00,North,-999,-999.0,-999.0,-999,1.44,,,3.08,,2013-02-18 03:12:00,
2013-02-17 22:22:00,9.0,-99.9,-100.00,North,-999,-999.0,-999.0,-999,1.44,,,3.08,,2013-02-18 03:22:00,
2013-02-17 22:30:00,8.0,-99.9,-100.00,North,-999,-999.0,-999.0,-999,0.26,,,3.34,,2013-02-18 03:30:00,
2013-02-17 22:52:00,8.0,-99.9,-100.00,North,-999,-999.0,-999.0,-999,0.26,,,3.34,,2013-02-18 03:52:00,
2013-02-17 23:02:00,8.0,-99.9,-100.00,North,-999,-999.0,-999.0,-999,0.26,,,3.34,,2013-02-18 04:02:00,
2013-02-17 23:11:00,8.0,-99.9,-100.00,North,-999,-999.0,-999.0,-999,0.26,,,3.34,,2013-02-18 04:11:00,
2013-02-17 23:22:00,8.0,-99.9,-100.00,North,-999,-999.0,-999.0,-999,0.26,,,3.34,,2013-02-18 04:22:00,
2013-02-17 23:30:00,7.0,-99.9,-100.00,North,-999,-999.0,-999.0,-999,0.00,,,3.34,,2013-02-18 04:30:00,
2013-02-17 23:52:00,7.0,-99.9,-100.00,North,-999,-999.0,-999.0,-999,0.00,,,3.34,,2013-02-18 04:52:00,